RH
20 18 16 15 14 14 13 11 9 8 7 6 5 5 4 4 3 4 3 3 3 4 7 5 5 8 7 7 5 3 3 0 1 5 5 13 23 19 19 21 17 14 8 13 40 57 57 60 55 50 50 48 45 44 44 46 54 63 66 74 68 58 70 68 52 45 52 57 54 57 59 52 48 58 61 55 53 44 51 63 56 52 59 61 58 58 63 69
22 21 19 17 16 15 16 14 12 10 8 7 6 5 4 3 4 4 3 4 3 4 6 6 7 8 8 8 5 5 2 1 10 22 23 16 12 10 16 19 17 14 7 22 47 51 52 53 51 50 47 44 42 40 39 41 51 59 61 63 61 67 71 49 35 44 55 62 57 53 55 51 45 50 51 46 45 43 46 49 48 51 57 60 57 58 64 69
21 22 21 20 18 17 17 16 14 11 10 9 7 6 4 3 3 3 3 3 3 4 4 6 7 6 7 6 6 6 0 11 30 40 42 29 12 8 16 19 18 13 7 28 48 45 47 47 48 48 42 39 38 36 34 38 46 51 61 63 61 73 67 39 31 35 42 58 55 46 54 53 45 47 48 43 39 43 47 41 45 51 51 54 56 58 63 68
18 20 22 21 20 19 17 17 15 13 11 9 8 6 5 4 2 3 3 3 3 3 4 6 6 6 7 5 7 6 4 23 37 40 42 34 22 14 13 18 21 11 9 34 46 41 43 42 45 42 36 33 31 32 30 34 39 44 60 62 55 65 66 50 39 32 31 44 46 41 51 50 43 47 45 41 40 46 55 46 43 51 52 53 57 59 61 66
14 16 20 21 22 21 19 18 16 15 12 10 9 7 6 4 3 3 2 3 3 2 4 5 6 6 5 8 9 6 14 25 27 34 33 25 25 24 16 17 22 10 12 40 44 38 40 38 42 39 32 28 25 29 26 29 33 35 47 50 46 54 67 59 40 37 34 35 39 37 45 50 43 41 37 43 51 49 54 49 42 50 53 54 57 60 60 64
11 13 16 19 22 22 20 17 17 15 13 12 9 7 6 4 4 4 3 4 3 3 4 4 6 6 7 11 5 10 28 24 20 30 26 19 24 26 21 19 21 11 18 46 42 34 37 36 39 35 29 26 23 24 23 25 28 29 31 35 37 42 58 57 38 38 37 33 35 32 40 48 40 36 37 50 57 49 53 53 47 50 51 53 58 60 60 62
9 10 11 15 19 22 21 18 16 15 13 12 9 8 6 5 5 4 4 3 3 4 3 4 6 6 9 8 8 29 41 22 19 26 18 18 21 22 22 21 20 11 23 46 40 33 34 33 36 30 25 24 21 21 21 20 21 26 25 26 31 33 41 44 36 37 36 34 36 34 36 37 35 35 36 47 54 51 58 57 49 51 50 51 56 60 60 60
8 9 9 11 15 20 22 19 16 14 13 11 8 7 5 5 5 4 5 3 4 4 3 7 6 6 8 7 22 41 34 20 22 22 16 15 17 20 21 23 20 12 26 42 37 33 31 32 32 26 21 20 18 17 19 18 18 22 22 23 28 32 34 35 36 37 35 34 34 35 34 33 35 35 33 46 57 50 49 50 47 51 52 51 55 59 61 60
8 8 8 8 11 16 21 20 16 14 13 11 8 7 6 6 4 4 5 3 4 4 5 7 5 9 8 10 30 33 18 22 23 20 22 17 13 19 20 23 20 17 29 36 35 31 28 31 29 23 18 17 15 13 16 19 20 20 20 19 20 26 31 33 35 34 34 33 32 32 32 32 34 36 34 44 59 50 41 45 46 49 52 52 54 57 61 60
7 8 8 8 8 12 18 20 17 15 14 11 9 8 7 6 5 5 4 4 6 6 8 7 9 14 11 20 36 25 15 23 21 22 30 20 12 18 25 29 25 28 34 34 34 29 26 29 26 21 17 14 13 11 14 17 19 19 18 18 17 20 26 31 33 33 34 31 31 31 32 34 32 36 41 47 58 50 42 45 46 48 50 50 52 55 59 59
7 7 8 7 8 9 15 19 17 16 14 11 10 8 8 6 5 5 5 7 6 7 9 10 16 14 17 37 40 22 19 23 21 27 35 29 19 21 33 37 34 38 38 35 34 29 27 26 23 20 16 14 13 11 12 14 17 17 16 17 18 19 21 26 30 34 35 32 33 30 33 40 34 33 44 52 55 50 45 46 47 48 49 49 50 53 56 57
7 8 7 7 7 8 13 17 17 16 13 12 10 8 7 6 6 6 8 8 8 12 14 16 18 15 32 49 35 22 25 25 23 25 37 43 33 31 41 40 38 41 37 33 30 26 26 23 20 19 14 12 10 10 11 12 13 13 13 15 16 17 18 20 24 31 34 34 35 29 36 44 37 34 41 51 57 59 55 48 49 50 51 52 48 51 55 55
7 8 7 7 7 7 13 16 17 16 13 12 10 9 7 7 8 8 8 9 13 16 15 18 15 20 48 46 23 21 24 24 24 19 28 42 38 36 45 44 39 40 37 31 26 23 23 20 20 17 15 12 7 9 12 12 11 10 12 13 15 15 15 17 19 26 29 32 33 31 41 45 39 35 37 54 60 56 54 48 51 51 51 52 49 50 53 54
8 8 7 7 6 7 12 16 17 15 14 13 11 9 8 9 9 8 11 15 18 19 18 19 15 33 54 33 15 19 16 23 26 17 19 31 37 36 43 47 40 39 38 32 27 24 21 21 20 17 16 13 9 11 14 12 10 10 11 12 13 13 14 14 16 23 26 31 29 29 40 41 39 33 32 55 56 43 47 48 52 56 52 51 50 51 50 52
8 7 7 7 6 8 12 16 17 15 14 13 11 10 9 10 9 8 14 18 20 18 20 22 20 43 52 24 17 18 12 22 24 17 16 23 35 35 38 43 38 37 37 34 31 26 22 21 21 19 17 14 11 11 13 13 10 11 13 13 12 12 13 12 14 20 22 27 26 29 39 36 35 31 30 51 50 41 46 47 55 62 59 51 48 52 50 51
8 7 6 6 7 10 14 17 17 15 15 14 12 10 10 10 8 8 12 17 23 18 23 35 36 48 45 18 15 18 13 18 16 14 16 17 27 33 36 38 36 38 36 35 32 27 24 22 22 20 17 14 11 10 12 12 10 11 13 14 12 11 13 12 14 18 19 23 24 28 36 35 36 32 37 54 48 43 46 47 54 63 69 60 49 51 50 51
7 7 6 7 10 13 16 17 17 16 16 15 13 12 13 12 9 11 12 14 21 17 21 37 40 41 32 12 11 15 12 13 13 14 16 15 18 29 36 35 36 36 33 31 30 28 27 25 23 19 16 14 10 9 12 12 11 10 11 13 12 12 12 12 14 17 18 21 25 26 27 35 45 42 49 58 46 41 45 49 54 60 73 65 49 51 50 50
6 7 6 7 11 16 17 18 18 17 17 17 17 18 18 14 9 11 15 18 24 26 24 26 30 32 23 10 11 13 11 13 15 14 16 15 17 28 33 32 33 31 28 27 26 26 25 21 18 15 15 14 11 11 11 10 9 8 10 12 12 12 12 11 13 15 18 20 24 28 28 36 45 42 46 49 40 38 45 56 60 62 73 63 49 51 49 49
6 6 6 7 10 17 19 18 19 19 19 19 20 24 24 22 20 17 23 32 34 32 27 21 21 21 15 11 12 12 12 14 14 15 16 14 18 28 30 28 28 26 24 23 21 21 19 16 15 15 15 13 13 12 9 7 6 7 8 10 12 12 11 11 10 12 17 20 22 27 33 39 38 34 39 43 40 40 48 64 67 70 77 61 47 49 49 50
6 6 6 6 8 16 20 19 19 21 22 22 22 24 24 25 27 23 23 27 22 16 16 15 14 12 11 12 12 12 13 13 13 14 16 16 22 29 26 24 24 22 21 18 18 17 15 15 15 15 14 11 11 11 9 6 5 7 8 8 10 10 11 10 9 10 15 20 23 22 29 39 36 30 35 39 38 38 49 66 71 75 75 59 47 47 49 50
8 7 6 6 7 13 20 21 21 22 24 27 26 23 23 21 21 23 22 16 11 12 14 13 12 12 11 12 12 13 13 12 13 15 16 20 27 27 22 22 21 20 18 15 15 15 15 16 14 13 11 10 10 9 9 8 5 7 9 9 9 9 10 9 8 10 13 20 24 20 24 36 36 29 31 34 34 35 44 59 69 72 68 60 53 47 46 48
12 10 7 7 6 10 19 22 22 24 25 29 28 23 26 26 24 28 28 19 13 12 14 14 12 11 11 12 12 13 12 11 12 15 16 22 28 24 20 19 18 17 15 13 14 15 17 16 12 10 10 9 10 9 8 8 7 7 9 10 10 9 9 9 8 9 12 18 22 21 23 28 28 25 26 29 34 36 41 48 58 66 61 55 52 47 47 48
19 14 10 8 7 9 17 21 24 28 28 28 27 26 29 31 30 32 30 24 17 13 13 13 12 10 10 11 11 11 12 10 11 14 16 21 23 22 21 19 16 15 14 13 13 15 18 16 11 9 10 11 10 9 9 8 8 8 8 9 10 10 10 11 10 9 10 13 17 19 20 21 22 23 23 25 30 34 38 40 50 67 63 51 50 49 49 49
24 18 13 10 7 10 17 24 28 31 31 28 26 27 31 32 32 33 30 23 16 12 12 12 12 11 10 10 10 10 11 10 11 13 15 16 17 20 22 20 17 15 13 13 12 13 14 12 11 10 10 12 11 10 10 10 9 8 7 7 8 8 9 10 10 9 9 10 14 17 19 20 20 23 23 22 24 26 30 34 43 59 60 49 47 46 48 51
23 19 15 11 9 13 23 31 30 28 29 27 26 27 30 32 32 33 30 24 17 12 13 13 12 11 11 10 10 10 10 10 11 12 14 14 15 17 18 18 19 16 13 12 12 12 12 9 9 10 10 11 11 11 10 10 10 8 6 6 7 6 6 6 7 9 11 12 13 16 22 23 19 21 23 20 24 27 29 33 36 48 57 52 46 46 50 54
20 17 15 14 13 16 29 36 31 27 26 25 27 28 31 33 32 32 30 23 17 13 12 12 10 10 11 10 10 10 9 9 11 12 14 14 14 16 14 14 17 17 14 11 11 11 10 9 8 9 9 9 11 10 10 10 11 9 7 5 7 6 4 4 6 10 14 15 12 13 20 22 17 19 20 19 25 31 32 33 34 45 58 54 47 50 52 53
20 18 18 21 21 21 27 32 31 29 26 26 29 30 33 30 24 30 31 22 16 13 11 11 10 10 11 10 9 9 10 11 12 12 13 15 14 15 14 13 14 16 14 13 15 13 10 10 9 9 10 9 10 10 9 10 11 9 6 5 6 6 5 4 6 10 13 13 13 11 14 19 19 18 17 17 21 27 34 38 34 39 48 44 44 53 54 54
24 23 26 27 27 26 24 26 30 31 28 30 31 32 34 27 22 30 32 24 17 11 10 11 10 11 10 10 9 8 10 12 11 13 15 15 14 14 13 11 11 13 12 15 19 15 10 11 10 9 10 10 9 10 9 9 9 8 5 5 6 6 6 4 5 10 12 14 16 13 12 18 21 16 14 16 19 21 28 34 30 33 41 39 42 51 54 54
28 29 31 30 32 35 29 29 35 35 32 33 32 33 34 29 28 31 28 24 17 10 11 11 11 11 10 10 9 8 9 10 9 12 13 13 14 14 13 11 11 11 10 13 17 15 12 11 9 8 10 11 9 8 8 7 7 7 5 6 7 7 7 6 5 7 10 14 18 14 11 17 19 15 13 16 19 19 20 23 23 29 39 40 40 43 46 50
31 32 34 31 39 46 38 38 43 38 33 32 32 33 32 30 31 32 28 22 14 11 12 11 10 11 10 9 9 9 8 8 8 9 10 11 13 14 12 11 11 11 11 11 12 13 12 11 10 9 8 10 9 8 7 7 7 6 6 7 8 9 9 9 7 6 9 12 13 11 10 14 17 15 14 16 17 17 17 19 19 24 33 38 39 36 37 46
34 35 35 33 38 41 37 38 39 35 31 28 30 34 30 26 26 28 27 19 12 12 11 11 11 10 10 9 9 9 8 8 9 8 8 11 12 11 10 11 11 10 10 11 11 11 12 12 12 11 10 9 9 9 7 7 7 7 8 8 9 11 12 12 11 9 11 12 9 8 7 11 16 15 14 14 13 13 15 17 18 21 27 35 38 35 36 44
35 35 36 35 34 35 40 40 34 31 29 26 31 33 27 26 25 22 19 14 14 14 11 11 11 9 10 10 9 10 9 9 9 8 10 10 11 12 11 11 13 14 12 10 9 10 11 12 11 12 13 11 10 11 9 8 9 8 9 11 13 15 16 17 15 12 13 11 7 6 6 10 14 14 12 12 11 12 13 15 17 18 23 32 36 34 38 44
36 36 36 36 34 38 44 40 34 32 29 30 35 30 25 29 28 20 14 12 14 13 11 12 11 10 11 10 10 10 9 9 9 9 10 10 10 12 13 13 13 16 16 11 9 9 10 10 10 11 13 13 12 12 11 10 10 11 10 12 15 16 19 22 19 15 15 11 7 5 7 11 12 11 11 11 10 10 11 13 15 16 19 26 30 31 34 40
37 36 35 35 37 42 42 37 37 37 34 35 33 27 28 31 24 17 15 13 13 12 11 12 11 11 12 10 11 10 9 11 9 8 9 10 11 11 14 17 15 15 15 14 13 11 11 12 10 10 11 13 13 12 11 10 10 11 10 11 14 15 17 20 17 16 16 12 9 6 8 11 11 10 9 8 9 10 10 11 13 14 16 21 26 30 30 31
39 39 37 39 43 42 38 37 39 39 37 35 29 26 31 29 20 16 16 14 12 12 12 12 11 11 11 11 12 10 10 11 9 9 8 9 11 11 14 19 18 15 14 16 15 13 13 12 9 8 9 11 14 12 10 10 11 11 9 11 14 12 13 15 14 14 14 12 11 10 9 8 7 8 7 7 9 9 10 11 12 13 14 17 22 28 29 26
44 48 45 44 43 36 34 36 38 40 38 31 28 28 26 24 20 17 18 16 13 13 12 11 11 11 11 11 13 12 11 10 9 9 8 9 11 14 18 21 19 16 16 18 18 17 16 12 8 9 9 8 11 12 10 11 11 10 11 13 12 10 10 14 14 13 15 17 14 11 10 9 7 7 6 6 8 8 9 11 12 14 13 14 18 23 26 26
44 54 49 41 38 33 34 36 37 41 37 27 29 29 21 20 21 18 17 16 13 13 12 12 12 13 13 12 12 13 12 11 10 10 9 9 13 16 19 21 20 18 17 19 18 18 20 17 11 10 11 9 8 10 10 10 10 10 11 11 9 9 10 13 15 15 18 20 17 12 12 12 11 10 8 8 9 8 9 10 11 13 13 14 16 19 22 24
45 57 49 37 36 34 33 35 36 38 33 27 30 28 20 20 20 18 17 15 13 12 12 12 13 14 14 13 12 13 14 12 11 13 12 10 15 19 19 21 22 19 18 18 17 16 19 22 16 10 13 12 8 10 12 10 9 9 9 9 9 13 14 14 17 17 19 21 18 14 13 12 13 12 9 9 9 9 9 10 10 11 13 14 15 16 19 22
52 58 45 35 36 33 32 34 35 34 29 25 26 24 20 20 20 19 18 16 14 13 13 14 15 15 14 13 14 14 15 14 13 13 13 11 17 22 20 20 21 19 18 18 17 16 17 22 20 11 11 12 9 12 15 13 11 10 9 9 10 12 13 14 15 15 18 20 17 15 14 12 11 10 10 9 9 9 9 9 10 10 11 13 13 13 16 20
55 49 37 36 36 31 33 35 34 30 25 24 24 22 21 20 20 20 19 17 15 14 16 16 16 17 15 14 14 14 15 16 14 14 13 12 15 20 21 20 20 19 17 17 17 16 16 22 23 15 10 10 11 12 14 13 12 11 11 12 13 13 12 12 13 12 14 18 19 18 16 13 9 7 8 8 8 9 8 9 10 9 9 10 10 11 14 18
54 41 35 38 34 33 36 33 28 23 18 22 24 23 25 23 21 21 20 20 18 15 16 16 16 17 17 16 14 13 16 16 14 14 14 12 13 18 22 23 21 18 17 16 15 16 18 20 21 18 13 12 11 9 10 11 11 11 12 13 13 15 15 16 16 13 12 14 17 18 18 13 8 6 6 7 7 7 8 8 8 8 8 8 9 10 12 15
46 36 38 39 33 34 34 24 21 21 19 23 25 23 26 25 21 21 21 20 19 17 17 16 16 17 17 17 15 14 16 17 15 15 14 11 12 17 22 24 21 18 17 16 13 18 25 25 24 24 18 14 12 9 10 11 10 10 10 11 12 12 15 19 19 16 13 13 14 16 18 13 8 8 8 7 6 6 7 7 6 7 6 6 8 10 12 13
35 31 37 38 33 32 30 22 21 24 22 24 25 23 25 24 21 20 21 22 20 18 18 17 18 21 21 19 20 19 20 22 20 17 16 15 16 19 22 22 20 17 16 17 16 22 29 30 31 31 24 18 16 14 13 13 12 11 10 12 12 10 12 16 17 15 14 15 15 17 19 15 10 10 9 7 7 6 7 7 6 7 6 6 6 8 11 14
36 35 33 32 32 28 26 23 21 25 25 24 25 23 24 26 25 22 21 23 23 19 19 20 21 24 24 22 24 23 25 30 27 20 19 19 20 24 23 22 23 17 15 23 28 29 31 30 31 33 29 24 21 18 17 15 13 13 12 12 13 11 11 12 14 16 17 18 18 19 19 14 10 12 10 8 8 6 6 6 6 7 7 7 7 8 11 14
44 40 30 28 31 27 25 24 22 24 27 26 25 24 23 26 29 30 25 23 26 24 22 24 24 26 28 29 31 30 28 31 31 27 28 26 23 23 22 24 26 18 19 33 35 28 30 32 33 36 34 28 25 26 26 23 20 17 13 12 13 13 13 12 14 19 22 24 24 22 19 14 10 11 12 10 9 8 7 7 6 7 7 7 8 9 11 12
41 35 29 27 29 26 27 28 24 23 24 26 29 26 24 24 27 32 29 26 30 27 24 27 29 32 35 35 37 36 30 29 31 32 33 31 28 26 24 26 26 20 26 37 32 22 26 30 33 40 39 32 32 36 34 31 30 27 20 16 13 12 13 15 17 19 20 23 26 24 22 20 15 11 12 12 12 10 8 7 7 7 8 8 9 11 13 13
37 35 36 37 34 27 27 28 26 27 25 27 32 29 26 25 25 29 31 30 32 30 29 33 34 36 40 40 41 40 34 33 34 35 38 35 29 27 27 27 24 24 30 34 28 22 27 28 27 33 35 32 32 34 30 29 30 28 24 22 18 15 16 17 20 21 20 23 27 24 21 24 22 15 13 14 14 11 9 9 10 9 8 10 11 13 15 16
39 40 41 46 41 30 30 30 27 27 27 28 32 31 29 28 29 31 31 29 30 32 37 42 40 37 38 41 45 44 41 42 40 41 48 45 33 29 30 28 24 24 27 28 25 23 26 28 23 22 25 24 23 23 22 23 25 23 24 24 22 22 22 19 18 20 22 26 26 23 22 25 22 15 17 22 21 17 17 16 14 13 12 14 16 14 12 14
48 46 40 41 39 31 32 34 28 25 28 33 33 31 33 34 34 33 30 29 33 35 41 46 44 40 37 39 47 50 50 50 49 50 51 45 37 35 35 32 26 24 25 24 22 21 24 28 24 20 22 21 19 19 18 18 20 21 23 23 22 23 23 21 19 18 21 24 22 22 24 24 19 15 22 31 27 20 22 20 15 17 20 20 19 17 12 11
60 58 53 44 38 34 32 32 32 28 29 36 38 34 35 37 36 34 30 31 37 40 42 44 43 41 40 40 46 49 47 46 47 49 46 42 41 39 36 33 28 25 26 26 23 22 25 29 26 22 24 23 19 18 17 18 21 22 22 22 21 22 22 22 21 18 21 23 20 21 24 23 19 17 21 30 29 23 24 22 19 21 26 27 25 22 20 20
70 72 73 56 41 41 38 33 34 32 29 37 42 39 39 38 36 36 31 29 35 41 42 42 41 40 38 39 43 43 39 38 38 38 35 35 37 35 32 32 30 29 31 31 30 28 27 29 25 21 24 24 19 19 19 18 19 20 22 23 21 22 22 21 20 21 22 23 22 23 25 24 20 17 21 28 28 24 24 25 26 29 32 34 32 28 27 27
74 72 74 61 44 42 41 34 32 34 35 43 46 43 42 40 35 38 41 37 34 37 38 38 40 41 40 42 44 40 36 35 33 32 31 31 31 30 30 29 27 29 32 32 33 32 31 32 29 23 24 23 19 19 19 19 22 23 20 20 21 21 21 19 20 20 19 20 23 23 23 21 17 19 29 34 29 28 33 33 34 36 35 33 32 31 31 30
Wind_Speed
19 19 19 19 19 19 19 19 18 18 17 15 14 14 13 13 11 11 12 12 12 11 10 11 11 12 12 13 11 8 6 6 5 6 8 7 10 15 15 12 15 17 15 13 15 17 19 18 18 16 14 14 15 14 13 13 10 9 5 5 6 2 1 5 3 4 7 6 9 13 13 10 11 11 12 11 9 10 14 17 15 11 13 17 21 29 32 32
20 20 19 19 18 18 18 18 18 18 17 16 15 14 14 13 12 11 11 12 12 11 10 9 8 9 11 13 13 10 6 3 3 6 9 10 12 13 15 14 16 19 18 17 20 21 20 19 19 16 15 15 14 14 12 12 12 9 4 6 4 3 5 8 4 8 10 9 10 15 14 10 10 12 14 11 10 12 11 14 15 13 17 21 26 31 32 33
21 20 20 19 19 18 18 18 18 18 17 17 16 16 15 14 13 11 11 12 12 11 10 8 9 9 12 13 12 10 4 1 4 5 6 10 13 12 14 16 18 21 20 19 20 21 19 18 18 18 17 14 13 13 12 11 11 10 6 6 2 5 10 7 6 3 8 12 13 12 12 10 10 12 11 9 11 12 7 9 14 14 20 25 28 31 32 32
21 20 20 20 19 19 17 17 17 17 17 17 17 16 16 15 14 13 12 12 12 11 10 9 10 10 12 12 11 10 4 2 4 4 4 8 10 13 14 16 19 21 22 19 18 19 17 16 17 18 16 14 14 14 12 10 9 8 7 5 5 7 9 8 6 6 4 7 10 10 12 8 10 12 12 9 9 9 4 7 13 17 21 26 28 30 31 31
21 21 21 20 19 19 17 17 17 17 17 17 17 16 17 16 15 14 13 12 12 11 10 10 10 11 11 8 9 8 3 2 5 4 5 6 6 11 12 15 18 21 23 18 18 19 17 17 17 18 16 13 12 12 12 13 11 7 8 11 12 9 4 10 8 5 5 2 8 10 12 9 10 11 10 8 5 4 6 8 12 19 22 25 28 30 30 30
22 22 21 21 20 19 17 17 17 17 18 18 17 17 17 17 16 16 14 13 12 12 11 10 10 10 8 6 9 6 3 2 5 2 7 2 4 9 9 12 18 22 24 18 19 20 19 18 17 17 16 12 12 11 11 15 14 8 9 12 13 10 5 8 7 1 5 1 5 6 11 14 11 9 9 10 7 3 11 14 15 20 22 25 28 29 29 30
23 22 22 21 20 19 18 17 17 17 18 18 17 17 17 17 16 15 14 13 12 12 11 10 9 7 6 6 8 4 8 4 5 4 7 2 4 7 6 10 18 24 25 20 20 21 20 20 19 18 14 11 12 12 12 14 15 11 10 9 8 6 5 7 4 2 4 2 1 2 7 11 9 8 10 13 9 8 16 20 19 20 22 24 27 28 29 30
23 23 22 22 21 20 18 18 17 18 18 18 17 17 17 17 17 15 14 14 12 12 10 9 7 6 6 7 7 7 9 4 3 5 7 6 4 4 6 12 21 26 25 21 22 22 21 21 20 17 12 11 11 12 12 11 12 13 12 11 8 7 7 7 6 6 5 3 3 4 5 7 7 6 7 13 10 8 15 19 20 21 21 24 25 27 28 28
23 23 23 22 22 21 19 18 18 18 18 17 18 17 18 17 17 15 14 13 12 11 9 8 6 6 7 5 6 9 4 2 3 7 6 7 5 4 8 15 23 26 24 21 21 21 21 20 21 18 13 12 13 12 12 10 8 10 14 14 12 9 8 8 9 8 7 6 5 5 6 6 7 5 4 11 9 7 15 17 18 20 22 23 24 26 28 28
23 23 23 23 22 21 20 19 19 19 18 18 18 17 17 17 16 15 13 11 10 9 8 6 5 6 5 2 7 7 3 3 5 6 5 5 4 4 9 15 22 24 21 20 21 22 21 18 18 18 14 12 13 12 11 11 7 6 10 13 14 13 11 9 9 8 10 7 4 6 4 4 6 5 2 7 8 8 15 17 16 19 22 22 23 26 27 28
22 22 22 22 22 21 20 19 19 19 19 19 18 17 16 15 14 12 9 8 7 8 7 5 4 3 1 2 10 5 3 2 3 5 3 1 2 7 12 15 20 21 19 19 20 21 20 17 15 15 12 10 11 12 14 15 13 11 10 10 13 14 14 13 10 10 12 5 5 8 4 3 6 4 4 5 10 10 13 16 16 18 20 21 23 26 26 27
22 22 22 22 22 21 19 18 19 20 20 20 19 17 15 11 9 8 7 8 7 6 6 5 3 3 2 5 9 4 5 2 1 2 1 3 4 10 12 12 18 19 17 17 19 19 19 17 14 15 10 6 9 10 10 14 17 16 12 11 12 13 14 16 15 14 13 6 9 11 5 7 7 7 8 9 14 15 14 15 16 17 19 21 23 25 26 27
22 22 22 22 22 21 20 18 19 20 21 21 20 17 12 8 6 6 8 7 5 6 7 5 3 6 0 5 2 3 3 2 2 1 2 3 5 9 11 11 15 18 16 15 16 17 19 17 15 18 13 7 9 5 4 9 14 14 12 10 10 11 11 15 16 17 14 10 14 12 7 6 6 10 11 13 16 18 16 17 15 17 19 21 23 24 26 27
22 21 22 21 21 21 19 19 19 20 20 21 20 16 9 6 5 7 8 4 6 8 5 2 6 6 3 3 2 4 4 1 3 1 2 4 5 8 11 11 14 17 16 14 14 14 18 18 15 18 17 14 12 6 5 9 11 11 12 9 9 9 9 13 15 17 15 14 18 14 8 4 4 11 11 17 20 17 15 17 15 16 18 21 24 24 26 27
21 20 20 20 20 20 19 19 19 19 20 21 19 14 8 5 6 8 6 3 5 8 5 5 5 3 7 3 4 5 8 4 2 3 3 5 6 7 10 12 14 15 15 13 12 13 16 17 16 15 16 16 15 10 6 9 8 8 10 9 10 9 10 12 15 17 15 15 21 16 8 5 6 11 11 18 19 16 14 16 16 16 15 19 25 24 25 27
20 20 19 20 19 18 18 18 18 18 19 21 18 13 8 4 7 10 6 3 3 5 5 2 2 4 8 1 4 4 7 4 3 4 4 6 7 6 9 12 14 14 13 12 11 11 13 15 16 16 15 13 13 9 7 8 8 9 10 9 11 11 11 10 12 17 16 13 17 16 9 5 5 7 12 16 17 16 15 15 17 17 15 18 23 25 25 27
20 20 20 20 18 17 17 17 18 18 18 20 16 12 9 4 6 11 7 5 3 2 2 1 4 8 7 1 1 3 5 5 5 3 5 6 7 6 9 13 15 14 12 12 11 10 12 14 13 13 13 11 9 9 8 9 9 9 10 10 12 13 12 10 9 14 16 15 14 16 12 6 5 5 13 18 18 18 16 16 17 18 20 23 24 24 25 27
21 21 21 20 18 16 16 16 18 18 19 18 12 11 12 5 6 10 8 7 5 3 3 1 3 7 3 2 1 3 5 5 2 2 4 5 7 7 10 14 14 15 14 12 12 13 14 14 13 9 10 11 10 10 10 11 11 11 11 10 12 13 13 13 10 11 16 17 15 14 11 9 10 9 15 17 15 16 15 14 14 14 20 24 23 24 25 27
21 21 21 20 18 16 14 15 16 17 20 16 13 13 13 9 8 6 6 4 4 5 3 1 3 5 2 4 3 5 4 3 1 3 4 6 8 9 11 11 14 17 15 12 13 16 15 12 12 10 10 12 13 13 13 13 13 12 13 12 12 13 12 14 13 10 14 15 15 15 12 10 15 14 15 16 15 15 15 14 12 14 21 22 22 23 24 26
21 21 20 19 18 15 13 14 13 16 18 15 17 13 9 10 7 1 6 8 8 6 6 3 4 5 3 3 6 7 4 3 3 2 4 7 9 11 12 12 15 17 14 11 12 17 15 11 11 12 13 15 16 17 16 16 15 11 12 13 14 14 12 14 14 9 11 11 14 17 13 10 12 15 15 19 19 17 16 16 15 20 25 22 20 22 24 25
22 21 20 19 18 16 12 13 13 14 15 14 17 12 6 11 7 4 12 9 5 4 5 3 5 4 3 4 6 6 3 2 1 2 4 8 10 11 12 13 14 12 13 14 12 14 14 11 13 16 16 16 16 17 17 17 17 12 11 12 12 13 13 14 13 11 12 10 11 15 14 11 13 14 16 19 17 16 18 17 17 26 28 24 22 23 23 23
23 21 20 18 17 15 12 11 11 11 12 11 11 9 6 9 7 7 11 9 6 5 5 3 4 3 3 2 3 4 4 4 4 5 4 8 10 11 11 12 12 9 13 15 11 11 12 13 16 17 16 15 14 15 16 17 16 12 9 10 9 9 11 12 12 12 12 10 9 14 14 14 16 15 16 20 18 18 22 22 20 25 23 23 22 21 21 22
23 22 20 18 16 14 12 9 9 11 12 9 7 8 7 7 7 7 8 10 9 7 7 5 5 2 2 1 1 4 7 6 3 5 4 7 10 12 9 9 12 11 12 15 12 10 10 12 17 17 14 16 16 14 14 14 13 12 10 10 10 9 10 9 10 13 13 9 9 13 13 12 14 14 15 20 22 21 23 23 20 20 20 21 20 20 22 23
23 22 20 18 15 13 11 7 8 10 8 5 6 9 9 8 8 7 7 10 9 7 6 4 4 2 3 2 2 6 6 3 2 3 4 7 8 9 10 10 12 12 12 16 17 14 12 11 16 19 16 15 16 13 13 12 10 13 14 11 11 12 12 10 10 12 14 11 9 11 11 9 12 14 13 16 20 19 19 20 20 20 22 21 19 21 22 23
22 21 19 17 15 11 7 4 6 8 7 3 5 10 10 9 8 6 6 9 6 6 6 5 5 3 1 2 3 6 5 4 4 1 2 7 7 4 8 11 11 11 13 17 17 14 13 13 13 16 18 17 16 14 14 12 9 12 15 15 15 15 15 13 13 12 11 11 12 13 11 8 12 15 14 13 15 15 15 16 19 21 24 24 23 24 23 23
21 20 18 16 14 9 4 2 4 9 7 2 7 12 11 10 9 5 4 7 4 6 7 6 4 3 1 1 1 5 6 5 4 1 2 5 7 6 7 9 9 11 13 13 12 9 11 15 12 11 16 18 16 14 14 13 10 8 11 15 17 18 17 15 14 12 9 9 11 14 12 9 10 15 17 15 14 17 16 14 18 24 28 29 26 25 24 23
19 18 17 16 15 10 4 3 6 8 6 4 10 13 12 11 8 2 4 7 3 5 6 5 2 2 2 2 4 6 4 2 3 5 3 3 5 6 7 8 8 9 11 9 8 8 11 16 15 13 14 15 14 13 13 14 11 8 8 10 13 16 18 18 15 11 9 9 11 14 13 10 9 11 16 18 17 18 19 17 21 24 27 26 23 23 24 25
18 17 16 16 14 9 5 4 5 6 6 8 12 13 12 10 3 3 6 5 2 4 4 4 2 1 1 4 5 7 5 3 4 5 2 5 5 7 9 10 10 9 11 10 8 9 12 17 18 15 13 12 12 11 13 15 12 10 10 8 8 11 15 17 14 10 10 10 11 13 14 11 9 10 13 17 19 19 20 22 21 21 24 25 23 24 26 27
18 17 16 15 13 10 8 5 4 6 8 9 11 12 11 7 1 4 7 4 3 5 3 3 3 2 4 5 3 5 5 4 5 1 1 8 7 8 9 8 10 11 11 12 11 9 10 14 19 16 11 10 12 13 15 17 13 12 13 8 5 8 10 12 13 10 11 12 12 14 15 11 9 10 11 12 15 17 17 19 19 21 26 27 25 27 28 27
18 17 16 13 11 9 9 6 2 6 10 9 9 11 9 5 4 6 6 2 3 5 3 1 2 1 5 7 5 2 4 4 5 5 6 7 7 9 10 8 9 10 10 12 13 14 13 13 15 15 13 11 13 14 15 15 13 12 13 10 7 8 9 8 9 9 10 12 14 17 18 15 11 9 9 10 13 15 15 16 17 21 25 26 25 26 26 27
18 17 15 11 7 6 6 4 3 8 10 8 8 10 8 6 5 7 4 1 2 4 4 2 1 2 4 5 2 1 2 3 3 6 7 6 8 10 9 8 8 8 8 10 11 14 17 14 11 12 15 15 13 14 14 13 13 11 10 10 8 8 8 8 8 9 10 11 13 17 20 19 14 9 8 11 14 16 16 15 16 19 22 25 24 24 23 25
17 16 14 10 8 7 5 7 9 10 7 6 8 9 8 6 6 7 1 2 2 2 3 3 3 1 2 5 3 1 3 2 1 5 5 4 6 6 4 4 3 5 8 8 9 12 14 16 13 12 15 16 13 12 12 12 12 11 10 9 9 7 7 8 9 9 10 11 12 15 18 17 13 12 12 13 13 16 16 15 16 20 23 27 29 28 26 25
18 16 13 9 9 9 7 10 12 11 5 5 9 9 7 6 5 3 1 1 2 4 3 2 2 2 4 6 2 1 5 3 2 3 3 5 6 3 2 3 6 7 6 5 8 9 10 14 18 15 12 16 16 11 10 11 11 12 11 9 9 8 8 10 9 9 10 11 13 16 15 13 12 13 16 17 14 14 17 19 21 23 24 27 29 31 28 27
18 16 11 7 10 12 12 12 12 11 7 6 10 8 7 7 4 2 2 4 6 4 2 1 3 4 5 4 3 3 5 3 0 4 4 6 7 5 5 2 4 8 8 7 7 8 9 10 16 17 12 14 18 15 12 11 10 12 12 10 10 9 8 8 8 9 10 9 13 16 14 11 10 9 13 18 17 17 18 18 21 23 23 25 27 29 28 28
17 13 8 6 9 12 12 12 12 10 7 8 9 7 6 6 3 2 3 5 5 3 1 1 6 8 5 3 1 2 4 1 2 3 6 6 5 5 4 5 5 5 7 6 5 7 11 9 9 17 18 16 18 18 16 14 11 11 12 11 11 10 9 8 8 10 10 9 10 12 10 9 8 8 10 14 18 21 20 14 15 19 21 24 26 28 27 27
13 8 5 5 8 11 10 9 10 7 6 9 8 5 2 2 5 6 5 6 5 6 6 5 6 7 5 4 4 4 1 3 3 4 5 5 4 3 3 6 6 5 6 5 6 6 9 9 4 10 18 18 18 18 17 16 11 8 11 12 11 12 11 10 10 11 11 10 8 8 10 10 8 9 11 13 15 19 21 16 14 17 20 22 24 26 27 28
10 4 3 4 9 11 9 7 6 3 7 9 6 3 3 6 7 7 6 6 5 4 8 7 2 2 4 2 2 5 3 3 4 3 3 4 2 1 4 4 3 5 7 6 6 5 5 8 7 6 12 15 17 18 19 20 17 10 10 11 11 13 12 10 9 9 10 10 7 8 11 10 9 8 10 13 15 16 19 19 18 18 18 19 20 23 25 26
9 2 4 3 10 11 6 5 5 4 8 8 3 0 4 6 7 8 6 6 5 4 6 6 1 1 4 5 2 3 3 4 1 0 4 3 3 1 1 1 3 3 6 8 6 4 7 9 7 5 8 11 14 16 15 19 22 18 13 9 10 12 11 9 8 8 10 9 7 10 12 10 9 8 9 15 17 17 17 18 20 20 19 20 21 22 24 24
6 5 3 6 11 8 4 3 6 7 8 6 3 2 3 5 7 8 6 4 4 5 4 4 1 1 2 4 5 4 2 3 4 3 4 2 2 2 2 1 2 4 6 7 7 6 6 8 7 5 7 10 11 11 11 13 18 20 18 12 10 10 10 10 9 8 8 8 8 10 11 9 7 7 10 14 17 18 18 17 18 20 22 24 24 23 24 24
7 8 1 12 11 5 3 6 8 9 6 2 3 3 5 4 5 7 6 5 5 4 4 5 2 2 4 3 3 3 1 2 6 5 3 2 1 4 4 4 4 6 8 8 8 7 6 7 8 8 9 10 9 9 12 13 13 15 15 13 11 9 9 10 10 9 9 8 7 8 9 8 8 9 11 11 12 15 18 17 15 18 23 26 27 26 26 26
10 7 5 14 10 4 7 10 7 5 2 2 4 5 5 3 3 5 4 5 5 2 3 6 4 4 6 6 4 4 4 6 8 6 5 5 3 1 3 6 5 7 8 8 8 5 5 6 8 10 9 10 11 11 14 17 15 13 12 13 14 11 10 12 11 11 11 9 8 8 8 7 5 7 11 12 9 9 15 18 16 17 22 23 23 25 26 26
10 4 8 14 9 7 12 6 1 3 2 4 4 6 4 2 3 3 3 4 3 0 1 5 4 4 6 6 7 7 6 8 9 7 7 6 3 3 4 6 7 8 7 8 7 3 4 5 7 9 10 11 11 11 12 15 19 19 14 12 14 14 12 11 11 11 11 11 10 8 9 6 1 3 5 10 11 8 11 15 16 19 24 24 22 24 24 24
8 4 7 11 11 10 10 1 4 2 3 5 3 4 3 2 3 2 3 5 4 1 2 4 3 4 6 5 6 8 6 7 9 9 9 8 2 7 8 8 8 8 7 7 6 5 4 5 7 7 9 12 15 14 13 14 16 17 14 12 14 16 16 13 11 11 11 12 11 9 10 7 4 6 2 6 9 10 9 11 12 15 18 22 24 23 23 24
6 4 4 9 12 10 5 1 3 3 4 3 4 4 4 3 6 5 4 4 5 3 4 5 2 2 5 6 7 9 7 6 8 8 8 8 1 8 9 8 7 8 6 4 5 6 4 6 7 7 8 9 11 11 11 12 11 11 13 15 16 19 22 19 14 12 11 11 12 10 11 9 6 9 5 1 4 7 8 10 12 12 12 16 20 21 22 23
5 3 2 9 12 10 7 6 4 4 4 3 4 3 2 4 4 5 6 4 4 6 4 3 4 4 5 7 7 8 8 7 7 6 6 8 4 4 5 3 5 10 5 8 9 8 6 6 6 8 9 9 9 7 6 7 7 8 13 18 21 23 23 19 14 13 11 10 13 11 9 10 12 9 7 5 6 6 4 5 8 10 10 11 12 15 21 23
5 3 3 6 8 10 11 9 7 3 2 2 3 3 3 2 5 2 5 4 2 5 4 2 4 5 4 6 6 6 7 7 7 5 5 6 5 5 7 5 7 10 5 8 10 8 6 7 9 11 12 10 8 7 8 9 8 9 13 17 21 23 23 19 13 13 13 9 11 13 8 8 12 12 11 11 10 10 8 6 7 9 10 11 7 3 8 16
5 4 6 4 3 6 8 8 8 6 3 2 1 2 3 4 3 3 2 2 1 4 3 1 3 3 2 5 6 5 5 6 7 7 8 8 5 5 8 9 11 9 3 5 10 8 5 8 12 14 16 17 16 16 15 13 12 13 15 16 16 17 22 22 16 13 14 10 11 13 11 11 12 10 10 9 8 10 7 3 4 6 8 8 5 2 2 7
6 5 6 5 3 4 6 6 7 6 5 4 2 1 2 3 3 2 1 1 2 2 2 2 2 2 4 4 5 5 5 6 7 7 8 8 7 6 7 9 11 10 7 9 11 9 6 8 11 14 16 18 19 20 19 16 15 15 16 18 17 17 19 20 20 18 16 13 12 12 14 15 15 10 5 4 3 1 5 5 2 3 5 8 7 2 6 8
7 6 6 5 3 4 5 5 4 5 6 4 2 2 3 3 2 3 3 3 3 1 3 4 1 2 4 4 4 6 5 6 7 5 6 7 7 7 7 8 9 10 10 10 10 8 7 8 11 14 15 16 17 18 18 17 17 17 17 19 19 17 17 16 18 20 20 20 18 16 17 17 15 11 1 10 9 5 7 5 1 4 3 5 5 1 4 6
6 5 5 5 5 5 5 4 3 3 4 2 2 3 3 3 3 4 3 5 5 2 3 6 3 2 5 4 5 7 6 7 9 7 8 8 7 7 8 7 6 7 9 8 7 8 7 7 10 11 11 13 15 16 17 17 18 19 19 20 20 19 17 15 15 17 18 21 21 20 20 15 12 14 6 8 11 10 8 8 3 3 2 2 5 6 5 4
6 4 2 2 3 3 3 4 1 1 3 3 2 3 2 2 3 5 5 4 5 5 4 6 5 4 6 6 6 8 8 10 12 12 12 12 11 10 8 7 7 7 7 7 6 8 8 7 9 10 9 10 12 14 16 17 19 21 21 21 20 19 18 16 15 15 16 19 21 21 18 12 10 15 11 8 12 12 9 9 6 5 6 8 10 11 9 7
6 5 2 4 1 1 1 2 0 2 2 3 2 2 2 3 3 5 4 2 3 4 4 6 7 6 6 7 6 8 10 11 13 16 16 17 17 17 15 14 15 12 9 7 7 7 7 8 8 9 10 10 11 14 14 14 16 17 17 19 20 19 19 19 18 19 18 17 17 16 13 13 14 13 9 9 12 11 8 8 9 11 12 12 13 14 11 9
Wind_Direction
2 359 355 354 353 353 351 348 345 343 343 343 342 339 338 339 340 337 332 336 342 344 349 354 8 19 24 17 1 345 322 304 292 270 257 229 212 220 214 203 201 197 196 184 173 181 183 189 196 198 207 212 221 231 226 215 224 239 233 244 261 343 343 259 281 83 110 144 150 169 183 168 149 142 148 156 163 152 140 137 141 139 131 142 146 145 149 149
2 359 355 351 349 349 347 345 343 340 341 340 339 338 335 334 335 332 327 329 336 340 340 345 352 360 0 358 3 355 325 326 300 271 268 239 224 226 216 203 195 193 187 179 183 186 185 189 192 195 206 214 218 226 230 210 209 227 244 260 273 353 261 263 325 88 127 175 180 180 174 164 152 145 161 164 154 154 150 142 134 124 123 133 142 145 149 151
1 358 355 351 349 347 345 342 339 338 338 338 337 334 333 333 331 327 324 325 331 333 332 333 326 330 332 335 352 349 341 352 281 252 252 242 230 226 218 205 194 192 184 181 189 189 190 191 189 193 204 217 216 217 224 199 200 217 231 267 266 253 265 300 347 64 134 165 181 175 143 145 151 147 177 175 150 149 149 147 139 131 129 135 143 147 151 154
0 358 355 352 350 347 345 340 336 337 337 336 334 331 331 330 328 324 321 323 326 326 325 323 317 323 327 331 344 349 2 263 225 168 238 255 235 225 221 206 197 192 178 179 194 195 195 195 194 199 207 221 216 216 224 204 201 208 208 249 256 249 274 305 328 11 52 140 164 163 134 152 168 162 185 178 151 142 160 179 148 138 137 139 146 150 154 157
359 357 355 353 351 348 345 340 336 336 336 337 333 330 328 327 326 322 322 324 321 320 318 317 316 320 329 338 341 352 359 237 138 117 282 279 237 222 224 208 198 188 172 179 199 197 199 197 197 206 217 229 219 216 226 219 219 227 217 226 241 239 252 279 285 14 356 124 155 163 145 169 186 176 182 153 133 149 167 179 148 142 146 146 150 153 156 160
358 356 354 353 352 350 347 343 339 336 337 337 333 329 325 324 324 323 325 323 317 316 313 313 314 318 335 341 337 350 288 265 87 297 271 310 254 219 221 208 194 182 171 187 204 197 202 199 197 208 220 233 228 224 224 221 224 243 240 227 233 228 203 248 254 4 321 318 151 167 153 171 185 184 178 129 102 184 171 162 147 144 149 151 154 157 160 163
355 353 352 351 351 351 349 346 342 339 339 337 335 330 324 322 322 324 324 320 317 314 310 310 310 317 337 332 334 324 250 253 62 299 254 309 284 211 213 200 188 179 176 197 203 196 202 198 201 210 218 231 234 233 229 227 225 236 256 253 250 249 232 235 246 265 289 308 155 183 165 179 182 180 179 142 137 195 173 156 145 143 151 153 155 161 164 165
353 351 351 350 350 352 350 349 345 343 342 340 337 331 326 323 322 324 320 319 317 309 307 308 309 317 322 325 317 271 242 227 39 319 270 268 276 210 206 187 183 180 183 201 201 197 202 200 205 210 219 232 237 239 235 235 231 234 250 262 261 258 248 240 254 253 250 258 213 204 195 187 182 185 172 145 150 174 153 144 140 143 152 153 156 163 166 167
350 349 349 348 350 351 350 350 346 346 346 343 339 333 329 324 321 320 317 318 312 306 308 307 310 312 308 317 289 263 216 102 327 323 297 264 266 225 196 182 181 181 189 204 202 201 202 204 207 211 227 235 238 244 236 234 233 230 239 250 256 252 245 231 235 238 238 236 207 213 216 194 189 204 164 134 141 150 134 135 138 144 153 154 158 164 167 170
348 347 347 347 349 350 351 350 348 347 346 344 341 337 331 325 321 319 316 315 308 308 309 308 312 303 313 326 275 264 114 55 334 338 306 256 261 193 170 180 181 183 197 204 204 206 205 209 211 217 239 249 249 249 237 235 246 250 245 252 259 259 254 236 229 235 237 232 214 221 218 227 208 184 162 127 143 162 142 140 144 151 157 158 161 165 169 172
345 346 345 347 348 349 351 349 348 346 346 347 343 339 332 326 323 318 318 317 314 316 310 315 312 290 49 277 270 291 49 352 349 355 327 198 216 164 159 181 185 189 202 204 206 207 209 214 215 221 237 252 256 251 240 239 251 266 269 270 262 256 253 238 226 229 237 242 246 235 173 215 234 176 198 155 150 162 147 146 151 157 160 163 165 165 170 174
345 345 345 347 348 349 350 349 348 346 349 350 346 343 335 330 329 323 324 324 327 326 320 317 287 142 102 260 265 323 8 324 336 4 66 122 165 166 165 186 191 197 203 206 209 209 214 218 221 227 225 240 248 246 247 240 245 257 265 274 264 251 245 234 222 218 226 227 232 240 197 200 234 201 182 155 162 170 158 154 156 161 163 167 169 165 171 176
345 346 345 346 347 348 349 350 350 349 351 352 350 347 340 341 338 330 331 337 359 350 339 324 194 141 195 259 241 338 339 289 284 9 136 160 172 181 189 195 196 203 207 211 213 211 218 220 225 232 232 243 242 257 315 250 239 246 250 258 262 255 241 228 221 213 212 214 216 227 224 206 241 220 166 136 174 180 163 163 163 167 167 170 172 169 172 176
345 346 345 346 347 347 348 351 353 352 354 354 353 351 351 356 349 346 348 14 33 5 12 81 144 143 265 253 120 336 360 11 253 193 190 197 181 193 202 203 199 201 208 218 220 216 218 221 229 237 238 242 251 292 319 251 232 235 241 240 246 256 247 222 212 209 206 205 205 214 238 206 244 244 176 148 180 183 165 167 169 176 175 173 174 173 174 176
346 347 345 346 347 348 350 351 354 355 355 356 357 357 360 3 8 9 9 48 36 16 63 110 112 164 254 206 129 342 14 32 233 219 245 207 192 200 200 203 198 196 207 218 222 220 216 219 227 236 236 234 251 278 268 239 226 224 232 232 230 237 256 230 199 206 210 197 196 207 243 197 207 237 177 158 176 179 174 171 173 184 188 182 174 174 177 176
346 346 347 350 349 350 351 350 355 357 357 358 359 2 360 1 23 24 19 25 20 34 69 87 360 284 271 202 116 359 16 4 287 251 239 205 204 210 190 189 188 191 203 208 214 218 213 217 222 231 236 228 235 248 246 235 219 219 224 230 230 221 244 238 190 199 211 205 195 204 232 183 188 218 164 163 178 181 183 179 179 181 192 196 179 175 178 177
343 346 350 353 352 352 351 350 354 356 359 1 2 7 360 334 10 22 32 35 37 54 40 344 287 271 276 325 203 334 359 332 320 252 217 204 210 203 178 181 184 187 190 194 203 207 204 210 218 225 232 228 222 221 234 232 214 213 216 227 235 226 234 234 197 190 202 216 205 207 222 155 129 208 176 177 185 186 184 184 187 181 192 199 184 177 179 178
341 344 349 353 354 350 347 349 352 356 0 4 12 15 10 350 330 0 25 27 12 272 253 164 242 250 255 59 293 328 341 333 344 207 206 203 207 196 181 183 184 184 185 191 196 198 196 201 212 220 221 223 220 213 219 224 219 217 213 220 232 231 233 232 221 189 195 216 211 212 219 157 143 186 191 185 189 192 181 182 189 190 205 200 183 180 180 179
338 340 346 352 353 346 344 346 348 357 0 9 25 11 6 357 309 338 18 323 288 282 268 154 256 271 31 56 10 336 326 325 303 228 208 198 197 188 182 184 183 185 188 190 190 194 194 196 208 217 214 213 214 215 221 228 232 231 227 225 227 231 232 234 235 198 190 213 217 216 217 184 169 176 187 186 195 198 180 176 187 209 221 205 186 184 179 180
335 336 341 347 349 344 339 340 343 356 3 22 26 1 347 347 300 303 5 277 250 311 318 334 319 310 341 14 355 336 306 271 269 240 199 191 185 183 183 185 186 190 198 196 186 190 194 201 209 214 216 214 214 221 230 239 248 256 250 238 229 233 233 231 234 206 189 214 226 221 219 217 191 178 185 189 194 196 183 178 187 216 218 199 192 188 179 183
332 332 337 344 346 341 335 338 340 350 8 32 26 10 10 360 333 342 343 295 236 293 289 317 326 305 324 340 348 349 324 247 163 111 180 185 183 185 182 187 191 193 206 204 188 187 199 215 215 214 219 222 219 222 230 240 249 255 258 255 238 233 235 232 232 212 193 207 236 230 224 227 210 193 192 191 192 193 192 186 195 218 209 187 194 190 180 184
331 330 334 340 342 340 334 336 343 353 13 30 22 22 30 4 343 331 324 290 255 258 255 276 276 284 344 313 335 346 288 243 149 118 174 191 199 199 180 192 206 200 202 206 193 187 204 224 222 216 217 227 228 223 225 234 243 243 242 255 250 238 238 234 236 230 209 200 227 230 226 229 222 213 201 190 186 193 200 195 202 219 203 182 193 189 184 187
330 330 333 337 340 340 331 335 1 10 18 24 18 19 7 347 336 318 297 282 273 234 222 242 241 293 334 252 332 310 278 257 162 121 159 203 221 219 203 204 216 212 203 206 204 199 210 220 222 221 215 221 229 224 222 227 236 240 235 240 245 241 243 233 226 235 231 217 225 231 229 230 229 227 216 198 192 196 201 195 197 210 199 189 195 191 189 189
330 331 333 336 338 340 335 349 26 14 3 5 19 15 351 333 332 314 278 275 266 203 198 230 230 296 336 320 292 286 289 267 242 95 158 229 239 224 227 229 221 221 213 210 215 218 223 219 215 221 218 218 226 222 221 225 225 232 235 238 244 241 243 246 236 234 235 224 225 244 245 231 223 226 226 207 197 200 200 191 190 198 199 195 194 197 196 191
330 332 335 335 337 348 355 24 36 356 320 305 2 358 342 332 327 311 274 267 248 178 174 194 213 231 299 297 274 288 288 225 231 18 172 249 270 237 233 238 230 228 217 211 221 227 228 229 215 214 217 217 223 221 217 225 228 227 228 233 245 254 252 253 254 249 242 224 212 226 245 241 219 218 227 215 191 192 198 196 197 198 199 197 191 196 196 192
331 334 337 333 334 353 20 30 350 330 317 335 353 341 336 329 314 299 275 261 211 154 160 172 198 190 180 264 292 287 261 191 182 245 223 250 267 265 253 237 223 234 234 215 220 234 228 231 222 209 218 216 220 226 215 217 235 234 222 223 234 251 259 255 252 247 243 242 222 216 230 247 226 212 219 218 197 189 188 199 210 199 194 193 186 188 192 193
333 336 336 333 335 349 355 294 307 325 322 334 342 337 332 322 310 267 249 252 195 152 159 150 147 117 80 328 292 273 278 110 172 200 231 269 242 243 252 241 221 231 249 237 222 225 221 228 221 203 217 222 217 223 211 207 228 242 231 228 225 234 246 250 251 248 244 254 249 231 226 239 244 224 213 210 210 201 185 196 213 196 189 191 180 182 192 194
336 338 337 336 336 346 355 310 313 334 328 323 331 333 330 323 315 192 248 262 131 140 142 117 137 185 302 292 276 282 322 326 233 167 169 262 235 229 240 247 255 246 238 240 235 217 207 224 228 212 212 225 221 216 214 215 226 240 241 246 243 233 235 241 246 251 250 252 253 240 232 235 243 237 217 206 213 215 196 198 207 193 189 190 180 183 190 192
336 339 338 337 345 358 4 355 325 313 318 317 320 330 333 325 252 220 255 271 128 136 109 109 163 200 262 241 222 289 301 266 270 48 212 240 222 236 255 262 276 274 253 243 245 239 214 214 226 226 215 219 225 219 218 223 225 234 242 251 271 261 243 237 238 243 247 249 246 239 236 242 241 229 221 214 217 219 209 205 205 196 191 183 180 189 190 190
335 337 335 341 1 1 340 337 305 300 311 304 310 329 318 279 237 238 241 230 126 122 109 114 152 194 270 239 184 213 266 248 294 295 241 227 207 229 262 271 270 275 266 252 246 251 250 228 219 228 225 214 226 230 223 225 226 228 237 238 238 248 246 240 238 239 243 244 242 239 238 244 249 230 218 227 224 212 211 213 205 198 189 177 183 195 190 185
334 335 332 335 357 353 322 306 280 297 299 285 305 315 282 244 242 255 250 137 116 132 149 108 74 221 272 273 212 132 236 217 293 275 233 208 202 216 236 232 231 243 249 250 242 241 248 245 225 225 230 220 221 232 226 219 224 225 227 231 229 226 229 233 228 227 236 240 237 235 237 241 245 237 218 224 225 213 210 212 204 200 187 175 185 199 192 184
335 332 329 323 334 349 330 298 298 300 286 269 295 290 260 238 235 245 219 152 189 120 118 78 57 38 326 285 252 348 276 219 337 276 258 252 223 208 222 232 239 242 233 230 227 224 230 238 234 220 221 223 221 224 221 210 212 221 219 219 224 220 216 220 217 217 229 238 237 231 231 236 242 243 238 233 225 214 208 203 206 210 192 179 187 195 191 186
338 333 327 317 330 344 324 303 309 312 302 275 280 268 252 257 250 265 7 134 61 42 62 63 35 339 309 274 236 360 264 249 348 286 254 267 257 212 204 307 315 283 261 258 240 224 215 221 226 223 208 211 217 216 213 204 199 211 214 210 216 217 214 216 214 223 232 231 231 229 230 235 239 238 238 240 238 229 214 197 206 217 199 187 191 190 186 185
339 334 328 333 348 347 334 323 316 311 303 271 263 250 239 249 249 323 357 69 60 45 82 20 300 269 266 281 6 353 261 205 48 283 246 228 238 220 186 149 332 290 279 289 267 241 236 218 210 216 204 192 209 220 222 218 207 209 215 218 221 223 224 224 215 222 235 233 220 219 224 233 235 226 226 232 235 243 239 207 204 219 205 192 192 187 188 189
343 341 342 358 352 337 327 315 302 300 285 253 248 240 240 255 276 347 16 50 42 7 20 289 278 265 226 184 79 345 290 158 114 279 261 232 238 237 192 96 45 324 286 276 277 261 259 256 206 206 205 192 201 215 224 231 224 205 209 220 223 223 232 245 249 241 242 244 222 210 218 229 238 238 227 227 222 227 240 227 207 221 213 198 192 187 192 195
349 345 338 348 335 321 316 302 298 295 255 242 242 240 247 11 10 10 18 1 351 353 327 267 240 254 230 172 155 145 161 279 288 289 251 228 257 304 35 47 33 351 323 294 293 289 255 259 260 207 207 204 204 207 214 230 237 206 204 219 223 224 234 247 257 259 254 250 234 216 219 216 225 235 220 223 224 216 222 221 211 220 216 202 194 191 195 197
352 332 286 317 331 326 320 304 300 273 237 243 246 268 7 42 22 7 9 342 331 338 306 283 192 243 272 275 189 135 99 282 256 263 251 195 185 49 61 56 28 347 336 321 294 310 303 275 275 240 222 221 218 213 210 220 234 234 211 206 210 222 235 244 249 247 243 245 238 229 230 214 208 219 203 208 222 218 214 213 211 216 214 202 196 196 198 197
354 300 238 338 345 332 319 298 297 271 246 247 233 343 14 35 31 17 12 346 319 284 280 283 80 59 291 295 314 62 14 308 128 165 264 201 139 67 36 91 62 12 329 316 283 294 325 293 264 234 236 236 227 222 218 215 222 239 245 218 205 215 220 225 239 240 234 238 233 228 236 229 210 208 202 204 210 215 214 211 211 211 208 204 202 200 199 199
351 263 229 20 353 330 325 300 285 269 253 253 237 134 68 47 41 22 2 343 302 282 302 316 347 87 266 290 329 356 342 308 336 319 264 227 127 86 39 360 3 359 337 314 287 284 299 282 266 243 237 241 229 217 224 220 213 228 246 243 226 226 219 213 224 235 238 242 237 224 226 232 224 212 215 211 203 208 213 209 210 210 207 209 211 206 199 198
313 266 25 24 354 344 344 282 261 255 248 308 356 76 79 59 57 37 8 349 307 282 333 340 325 281 299 306 286 280 274 299 298 288 282 308 180 133 79 27 328 326 326 299 274 273 272 264 270 267 245 236 232 215 221 231 218 213 228 234 228 230 231 224 220 222 233 243 244 235 227 227 224 212 218 221 201 200 210 211 209 211 210 210 211 210 202 196
301 267 27 12 349 334 298 272 255 264 250 63 36 58 58 6 28 44 31 358 320 299 340 321 302 293 309 313 277 265 286 277 267 262 256 253 237 177 61 30 345 322 316 283 255 255 264 256 259 266 253 229 224 221 222 233 236 226 222 226 225 221 225 228 219 212 222 233 240 248 243 238 225 196 206 221 215 197 204 210 211 214 217 216 207 207 206 199
306 294 9 357 348 320 295 277 103 329 344 78 58 61 63 308 338 16 22 358 327 17 328 295 302 317 308 310 305 296 291 282 275 273 264 253 280 3 60 45 352 320 304 275 267 334 340 280 261 261 260 256 252 245 244 250 248 240 235 237 234 226 223 229 225 213 213 222 230 244 249 249 70 107 199 220 218 207 198 201 208 211 216 220 212 204 204 201
345 21 19 0 348 314 288 208 98 19 53 90 93 64 53 319 339 23 25 354 330 6 307 303 356 349 320 324 309 293 298 295 277 271 273 266 312 28 32 29 354 307 287 277 286 355 351 264 259 265 263 274 280 274 270 269 258 244 239 241 241 234 227 229 236 233 222 217 217 221 235 236 130 119 199 223 206 208 200 195 210 213 208 213 214 205 199 200
12 21 34 27 1 325 285 63 81 98 89 115 146 112 91 35 360 352 18 7 336 335 313 307 345 329 309 319 301 290 304 300 272 272 284 275 355 36 6 360 343 293 285 345 350 354 321 241 241 257 250 251 256 253 245 239 240 243 237 234 239 240 234 228 231 241 239 239 242 228 220 222 170 129 118 152 200 215 205 190 207 220 209 205 207 202 198 199
295 276 43 57 33 21 39 28 28 106 107 94 90 83 111 97 49 342 338 1 339 322 312 311 314 298 300 303 287 279 275 262 266 286 297 282 295 343 318 336 316 280 305 15 346 317 288 252 245 248 241 230 225 227 239 241 245 251 244 238 234 234 235 231 227 232 234 251 265 250 221 220 215 186 166 186 227 249 236 191 198 212 220 217 208 202 201 195
315 329 8 59 58 53 56 33 12 48 111 111 82 33 349 58 103 72 328 338 353 310 306 333 309 281 272 288 286 279 266 251 253 262 269 265 263 287 287 286 277 272 323 360 317 290 275 264 258 252 250 255 269 298 311 310 304 282 267 253 235 230 235 234 228 233 230 234 251 250 255 260 246 223 195 197 220 228 221 212 204 200 206 216 218 211 204 191
348 16 2 2 45 59 58 41 26 29 21 341 338 24 5 352 45 78 353 324 330 310 301 289 287 277 292 313 310 303 286 271 262 269 284 280 257 253 261 262 261 256 277 291 266 256 262 257 250 250 253 260 275 288 289 292 292 285 285 278 262 256 249 234 225 241 242 231 233 237 243 262 268 240 189 185 215 213 199 194 205 192 173 166 156 107 170 185
15 47 28 352 335 22 37 33 36 51 49 37 36 8 2 1 353 354 335 269 281 301 275 221 238 305 332 329 312 297 284 273 264 268 284 281 275 272 259 255 255 240 228 247 245 238 252 259 253 254 255 258 264 270 271 276 279 276 282 280 277 288 278 246 229 238 245 239 234 234 231 236 250 239 162 70 359 42 47 30 55 97 105 101 91 141 190 186
38 58 45 15 11 43 46 34 34 62 58 37 57 58 4 7 354 319 303 286 275 253 271 266 244 325 314 311 299 288 282 279 270 262 270 277 285 289 276 266 252 228 225 243 246 240 249 259 258 260 264 265 265 268 268 271 272 270 274 275 270 277 283 262 237 234 242 246 243 241 237 232 241 245 36 20 342 336 7 347 43 68 68 87 61 352 209 193
48 56 45 45 68 60 58 65 43 67 78 23 352 47 10 333 346 328 289 280 289 271 258 275 286 300 293 286 275 270 270 281 283 282 287 288 284 275 271 276 265 232 226 239 247 245 246 254 257 259 266 264 261 266 268 267 268 265 262 262 262 261 258 252 243 236 240 245 241 238 239 237 249 254 268 358 321 297 321 316 308 54 42 28 8 346 341 342
52 66 34 6 63 51 32 70 52 278 87 55 358 27 9 337 352 324 288 282 308 310 287 288 300 300 283 271 266 271 275 279 282 286 284 280 277 276 274 274 277 268 250 244 245 240 239 255 259 251 254 260 259 260 261 262 263 261 255 250 251 251 243 235 238 241 243 246 239 234 235 238 249 253 261 316 303 282 291 308 322 357 359 345 322 314 331 337
48 71 41 330 36 134 293 58 73 273 53 51 4 7 337 324 339 320 305 287 292 297 294 294 300 300 288 280 280 286 289 286 285 286 284 279 276 274 270 263 260 260 258 255 255 246 241 251 258 252 251 253 252 253 257 260 257 251 246 241 239 239 239 238 239 241 244 247 239 231 232 238 245 256 281 301 288 284 299 315 328 337 335 324 303 298 312 314